Location: ????
(55.5675°N, 37.6272°E)
Time: 20:44:50
(UTC+00:00)

ACS3 Solar Sail - Pass Details

Date: 14 April 2026
Orbit: 893 x 948 km, 97.2° (Epoch: 11 May)

Event Time Altitude Azimuth Distance (km) Brightness Sun altitude
Rises 22:19:29 0° 15° (NNE) 3,534 6.2 -23.9°
Reaches altitude 10° 22:22:00 10° 21° (NNE) 2,595 5.1 -23.8°
Maximum altitude 22:27:36 49° 96° (E) 1,169 2.2 -23.6°
Enters shadow 22:29:28 37° 144° (SE) 1,401 2.3 -23.6°
